UKV734 EGCC-LEMD

Flight info

Callsign UKV734
Flight time 2h 6m
Altitude 23000
Route ASMIM DCT NOKIN P17 BEPHE/N0450F380 DCT OSSEP DCT ELNIF DCT ZESPE DCT DAWLY DCT BHD DCT SALCO/N0451F370 DCT GOPIN DCT DELOG N864 NONTU
Aircraft A320/M-SDE3FGIKRWXY/S

Departure

Time 2026-05-05 08:56
Airport Manchester Airport (EGCC)

Arrival

Time 2026-05-05 11:02
Airport Adolfo Suárez Madrid–Barajas Airport (LEMD)
Time Latitude Longitude Altitude Speed Heading
2026-05-05 08:24 53.36763 -2.28769 255 ft 0 kts 315°
2026-05-05 08:44 53.36749 -2.28743 255 ft 4 kts 308°
2026-05-05 08:45 53.36735 -2.28705 255 ft 4 kts 288°
2026-05-05 08:45 53.36733 -2.28666 255 ft 4 kts 238°
2026-05-05 08:45 53.36748 -2.28637 255 ft 4 kts 224°
2026-05-05 08:45 53.36755 -2.28625 255 ft 0 kts 224°
2026-05-05 08:48 53.36750 -2.28634 255 ft 5 kts 224°
2026-05-05 08:49 53.36692 -2.28728 255 ft 13 kts 224°
2026-05-05 08:49 53.36618 -2.28793 255 ft 11 kts 199°
2026-05-05 08:49 53.36561 -2.28744 255 ft 9 kts 130°
2026-05-05 08:49 53.36526 -2.28667 255 ft 8 kts 127°
2026-05-05 08:50 53.36492 -2.28604 255 ft 7 kts 134°
2026-05-05 08:50 53.36460 -2.28550 255 ft 6 kts 135°
2026-05-05 08:50 53.36434 -2.28509 255 ft 5 kts 136°
2026-05-05 08:50 53.36401 -2.28481 255 ft 11 kts 163°
2026-05-05 08:51 53.36327 -2.28437 255 ft 10 kts 148°
2026-05-05 08:51 53.36285 -2.28366 255 ft 9 kts 131°
2026-05-05 08:51 53.36246 -2.28300 255 ft 7 kts 136°
2026-05-05 08:51 53.36212 -2.28244 255 ft 6 kts 135°
2026-05-05 08:52 53.36146 -2.28135 255 ft 26 kts 135°
2026-05-05 08:52 53.36010 -2.27925 255 ft 22 kts 139°
2026-05-05 08:52 53.35956 -2.27860 255 ft 8 kts 156°
2026-05-05 08:52 53.35856 -2.27817 253 ft 18 kts 139°
2026-05-05 08:53 53.35771 -2.27669 251 ft 17 kts 148°
2026-05-05 08:53 53.35660 -2.27576 246 ft 18 kts 141°
2026-05-05 08:53 53.35564 -2.27447 245 ft 17 kts 142°
2026-05-05 08:53 53.35467 -2.27319 248 ft 17 kts 139°
2026-05-05 08:54 53.35372 -2.27200 246 ft 17 kts 158°
2026-05-05 08:54 53.35252 -2.27216 237 ft 20 kts 192°
2026-05-05 08:54 53.35094 -2.27270 228 ft 26 kts 191°
2026-05-05 08:54 53.34964 -2.27413 225 ft 15 kts 231°
2026-05-05 08:55 53.34947 -2.27447 225 ft 0 kts 231°
2026-05-05 08:55 53.34875 -2.27597 222 ft 54 kts 231°
2026-05-05 08:55 53.34492 -2.28398 227 ft 119 kts 231°
2026-05-05 08:55 53.33856 -2.29698 243 ft 167 kts 231°
2026-05-05 08:56 53.33101 -2.31262 678 ft 177 kts 231°
2026-05-05 08:56 53.32315 -2.32887 1385 ft 184 kts 233°
2026-05-05 08:56 53.31767 -2.34913 1795 ft 202 kts 269°
2026-05-05 08:56 53.31987 -2.37341 2221 ft 224 kts 286°
2026-05-05 08:57 53.32386 -2.40022 2748 ft 245 kts 286°
2026-05-05 08:57 53.32602 -2.42854 3534 ft 258 kts 265°
2026-05-05 08:57 53.32059 -2.45748 4456 ft 265 kts 249°
2026-05-05 08:57 53.31430 -2.48655 5408 ft 267 kts 255°
2026-05-05 08:58 53.30900 -2.51655 6339 ft 271 kts 256°
2026-05-05 08:58 53.30394 -2.54703 7242 ft 273 kts 256°
2026-05-05 08:58 53.29881 -2.57771 8176 ft 275 kts 255°
2026-05-05 08:58 53.29220 -2.60791 9054 ft 278 kts 249°
2026-05-05 08:59 53.28355 -2.63693 9994 ft 282 kts 236°
2026-05-05 08:59 53.27002 -2.66094 10790 ft 288 kts 220°
2026-05-05 08:59 53.25324 -2.68025 11198 ft 308 kts 216°
2026-05-05 08:59 53.23485 -2.70118 11436 ft 331 kts 217°
2026-05-05 09:00 53.21549 -2.72342 11938 ft 343 kts 217°
2026-05-05 09:00 53.19575 -2.74618 12665 ft 347 kts 217°
2026-05-05 09:00 53.17571 -2.76926 13416 ft 350 kts 217°
2026-05-05 09:00 53.15563 -2.79235 14120 ft 354 kts 217°
2026-05-05 09:01 53.13528 -2.81572 14800 ft 357 kts 216°
2026-05-05 09:01 53.11475 -2.83924 15484 ft 359 kts 216°
2026-05-05 09:01 53.09261 -2.85899 16143 ft 365 kts 204°
2026-05-05 09:01 53.06807 -2.87050 16795 ft 371 kts 191°
2026-05-05 09:02 53.04251 -2.87278 17434 ft 376 kts 179°
2026-05-05 09:02 53.01640 -2.86663 18078 ft 381 kts 173°
2026-05-05 09:02 52.99020 -2.85925 18680 ft 383 kts 173°
2026-05-05 09:02 52.96385 -2.85202 19232 ft 385 kts 173°
2026-05-05 09:03 52.93743 -2.84487 19820 ft 386 kts 173°
2026-05-05 09:03 52.91086 -2.83778 20379 ft 387 kts 173°
2026-05-05 09:03 52.88416 -2.83076 20927 ft 390 kts 173°
2026-05-05 09:03 52.85729 -2.82364 21449 ft 392 kts 173°
2026-05-05 09:04 52.83023 -2.81637 21966 ft 395 kts 173°
2026-05-05 09:04 52.80308 -2.80896 22481 ft 397 kts 172°
2026-05-05 09:04 52.77571 -2.80144 22982 ft 400 kts 172°
2026-05-05 09:04 52.74855 -2.79412 23478 ft 402 kts 173°
2026-05-05 09:05 52.72086 -2.78672 23906 ft 404 kts 173°
2026-05-05 09:05 52.69303 -2.77938 24321 ft 406 kts 172°
2026-05-05 09:05 52.66501 -2.77198 24702 ft 409 kts 172°
2026-05-05 09:05 52.63685 -2.76452 25100 ft 411 kts 172°
2026-05-05 09:06 52.60841 -2.75919 25452 ft 413 kts 180°
2026-05-05 09:06 52.57966 -2.76054 25806 ft 415 kts 184°
2026-05-05 09:06 52.55069 -2.76311 26169 ft 417 kts 184°
2026-05-05 09:06 52.52161 -2.76567 26538 ft 420 kts 184°
2026-05-05 09:07 52.49234 -2.76823 26896 ft 423 kts 183°
2026-05-05 09:07 52.46332 -2.77075 27281 ft 424 kts 183°
2026-05-05 09:07 52.43378 -2.77329 27609 ft 427 kts 183°
2026-05-05 09:07 52.40408 -2.77586 27982 ft 428 kts 183°
2026-05-05 09:08 52.37427 -2.77844 28348 ft 431 kts 183°
2026-05-05 09:08 52.34423 -2.78098 28632 ft 434 kts 182°
2026-05-05 09:08 52.31393 -2.78356 28911 ft 437 kts 182°
2026-05-05 09:08 52.28350 -2.78617 29228 ft 439 kts 182°
2026-05-05 09:09 52.25295 -2.78881 29555 ft 441 kts 182°
2026-05-05 09:09 52.22230 -2.79151 29941 ft 441 kts 183°
2026-05-05 09:09 52.19165 -2.79421 30253 ft 442 kts 183°
2026-05-05 09:09 52.16132 -2.79681 30554 ft 442 kts 182°
2026-05-05 09:10 52.13069 -2.79936 30940 ft 441 kts 182°
2026-05-05 09:10 52.10008 -2.80189 31252 ft 441 kts 182°
2026-05-05 09:10 52.06936 -2.80447 31520 ft 442 kts 182°
2026-05-05 09:10 52.03864 -2.80711 31879 ft 442 kts 182°
2026-05-05 09:11 52.00796 -2.80976 32203 ft 442 kts 182°
2026-05-05 09:11 51.97740 -2.81238 32593 ft 440 kts 183°
2026-05-05 09:11 51.94683 -2.81499 32904 ft 439 kts 182°
2026-05-05 09:11 51.91629 -2.81759 33227 ft 439 kts 182°
2026-05-05 09:12 51.88624 -2.82014 33568 ft 439 kts 182°
2026-05-05 09:12 51.85572 -2.82275 33833 ft 440 kts 183°
2026-05-05 09:12 51.82514 -2.82694 34109 ft 441 kts 186°
2026-05-05 09:12 51.79465 -2.83293 34374 ft 442 kts 186°
2026-05-05 09:13 51.76422 -2.84003 34670 ft 441 kts 188°
2026-05-05 09:13 51.73405 -2.84747 35029 ft 438 kts 188°
2026-05-05 09:13 51.70392 -2.85477 35356 ft 437 kts 188°
2026-05-05 09:13 51.67397 -2.86170 35659 ft 435 kts 188°
2026-05-05 09:14 51.64430 -2.86826 35869 ft 436 kts 187°
2026-05-05 09:14 51.61422 -2.87468 36046 ft 437 kts 187°
2026-05-05 09:14 51.58402 -2.88103 36301 ft 437 kts 187°
2026-05-05 09:14 51.55411 -2.88892 36560 ft 436 kts 194°
2026-05-05 09:15 51.52517 -2.90363 36704 ft 438 kts 200°
2026-05-05 09:15 51.49651 -2.92092 36860 ft 440 kts 200°
2026-05-05 09:15 51.46787 -2.93825 37021 ft 441 kts 200°
2026-05-05 09:16 51.41036 -2.97297 37046 ft 442 kts 200°
2026-05-05 09:16 51.35325 -3.00717 37045 ft 442 kts 200°
2026-05-05 09:17 51.29568 -3.04145 37029 ft 441 kts 200°
2026-05-05 09:17 51.23803 -3.07565 37028 ft 442 kts 199°
2026-05-05 09:18 51.18045 -3.10975 37028 ft 442 kts 200°
2026-05-05 09:18 51.12279 -3.14389 37030 ft 441 kts 200°
2026-05-05 09:19 51.06553 -3.17773 37025 ft 442 kts 200°
2026-05-05 09:19 51.00793 -3.21159 37027 ft 442 kts 199°
2026-05-05 09:20 50.95029 -3.24544 37027 ft 441 kts 200°
2026-05-05 09:20 50.89266 -3.27912 37029 ft 442 kts 200°
2026-05-05 09:21 50.83488 -3.31281 37030 ft 443 kts 200°
2026-05-05 09:21 50.77689 -3.34655 37030 ft 444 kts 200°
2026-05-05 09:22 50.71889 -3.38036 37029 ft 445 kts 199°
2026-05-05 09:22 50.66084 -3.41402 37029 ft 444 kts 199°
2026-05-05 09:23 50.60396 -3.44684 37015 ft 444 kts 199°
2026-05-05 09:23 50.54397 -3.46934 37016 ft 445 kts 185°
2026-05-05 09:24 50.48277 -3.47946 37016 ft 445 kts 185°
2026-05-05 09:24 50.42116 -3.48985 37013 ft 446 kts 186°
2026-05-05 09:25 50.35943 -3.49813 37009 ft 445 kts 182°
2026-05-05 09:25 50.29746 -3.50105 37013 ft 446 kts 180°
2026-05-05 09:26 50.23542 -3.50284 37008 ft 446 kts 181°
2026-05-05 09:26 50.17336 -3.50561 37007 ft 446 kts 181°
2026-05-05 09:27 50.11132 -3.50922 37007 ft 446 kts 181°
2026-05-05 09:27 50.04919 -3.51283 37002 ft 447 kts 181°
2026-05-05 09:28 49.98752 -3.51617 36999 ft 447 kts 181°
2026-05-05 09:28 49.92538 -3.51947 36999 ft 447 kts 181°
2026-05-05 09:29 49.86326 -3.52279 36999 ft 447 kts 181°
2026-05-05 09:29 49.80102 -3.52612 36994 ft 447 kts 181°
2026-05-05 09:30 49.73885 -3.52951 36994 ft 447 kts 181°
2026-05-05 09:30 49.67661 -3.53307 36993 ft 447 kts 182°
2026-05-05 09:31 49.61482 -3.53671 36985 ft 448 kts 182°
2026-05-05 09:31 49.55254 -3.54046 36986 ft 448 kts 182°
2026-05-05 09:32 49.49029 -3.54414 36985 ft 448 kts 182°
2026-05-05 09:32 49.42806 -3.54774 36980 ft 446 kts 182°
2026-05-05 09:33 49.36641 -3.55137 36977 ft 446 kts 182°
2026-05-05 09:33 49.30436 -3.55501 36978 ft 445 kts 182°
2026-05-05 09:34 49.24221 -3.55859 36979 ft 448 kts 181°
2026-05-05 09:34 49.17996 -3.56216 36981 ft 447 kts 181°
2026-05-05 09:35 49.11775 -3.56572 36973 ft 448 kts 181°
2026-05-05 09:35 49.02443 -3.57119 36978 ft 447 kts 181°
2026-05-05 09:36 48.96755 -3.57450 36972 ft 447 kts 181°
2026-05-05 09:36 48.91957 -3.57725 36972 ft 447 kts 180°
2026-05-05 09:37 48.85697 -3.58075 36977 ft 447 kts 181°
2026-05-05 09:37 48.79496 -3.58430 36974 ft 447 kts 181°
2026-05-05 09:38 48.73263 -3.58782 36978 ft 447 kts 181°
2026-05-05 09:38 48.67048 -3.59139 36972 ft 447 kts 181°
2026-05-05 09:39 48.61840 -3.59440 36971 ft 447 kts 181°
2026-05-05 09:39 48.55622 -3.59791 36973 ft 447 kts 181°
2026-05-05 09:40 48.49369 -3.60134 36961 ft 447 kts 181°
2026-05-05 09:40 48.43164 -3.60473 36964 ft 446 kts 181°
2026-05-05 09:41 48.36947 -3.60827 36960 ft 447 kts 181°
2026-05-05 09:41 48.30733 -3.61185 36959 ft 447 kts 181°
2026-05-05 09:42 48.24513 -3.61532 36959 ft 447 kts 181°
2026-05-05 09:42 48.18297 -3.61876 36957 ft 447 kts 181°
2026-05-05 09:43 48.12080 -3.62218 36955 ft 447 kts 181°
2026-05-05 09:43 48.05872 -3.62556 36949 ft 446 kts 181°
2026-05-05 09:44 47.99657 -3.62905 36954 ft 447 kts 181°
2026-05-05 09:44 47.93700 -3.63245 36956 ft 447 kts 181°
2026-05-05 09:45 47.87659 -3.63607 36951 ft 447 kts 181°
2026-05-05 09:45 47.81362 -3.63928 36963 ft 447 kts 181°
2026-05-05 09:46 47.75140 -3.64252 36948 ft 447 kts 181°
2026-05-05 09:46 47.68933 -3.64595 36945 ft 447 kts 181°
2026-05-05 09:47 47.62718 -3.64937 36948 ft 446 kts 181°
2026-05-05 09:47 47.56513 -3.65269 36945 ft 447 kts 181°
2026-05-05 09:48 47.50342 -3.65609 36948 ft 446 kts 181°
2026-05-05 09:48 47.44143 -3.65952 36948 ft 447 kts 181°
2026-05-05 09:49 47.37933 -3.66292 36955 ft 446 kts 181°
2026-05-05 09:49 47.31692 -3.66628 36958 ft 447 kts 181°
2026-05-05 09:50 47.25466 -3.66954 36955 ft 447 kts 181°
2026-05-05 09:50 47.19242 -3.67275 36956 ft 448 kts 181°
2026-05-05 09:51 47.13014 -3.67616 36958 ft 447 kts 181°
2026-05-05 09:51 47.06788 -3.67955 36961 ft 448 kts 181°
2026-05-05 09:52 47.00563 -3.68381 36961 ft 447 kts 184°
2026-05-05 09:52 46.94342 -3.69142 36959 ft 450 kts 185°
2026-05-05 09:53 46.88098 -3.69984 36954 ft 450 kts 185°
2026-05-05 09:53 46.81851 -3.70756 36956 ft 451 kts 184°
2026-05-05 09:54 46.75643 -3.71475 36958 ft 450 kts 184°
2026-05-05 09:54 46.69388 -3.72185 36956 ft 451 kts 184°
2026-05-05 09:55 46.63144 -3.72916 36961 ft 451 kts 184°
2026-05-05 09:55 46.56890 -3.73653 36959 ft 450 kts 184°
2026-05-05 09:56 46.50644 -3.74385 36957 ft 451 kts 184°
2026-05-05 09:56 46.44394 -3.75114 36958 ft 450 kts 184°
2026-05-05 09:57 46.38140 -3.75835 36959 ft 451 kts 184°
2026-05-05 09:57 46.31889 -3.76551 36958 ft 450 kts 184°
2026-05-05 09:58 46.25642 -3.77265 36962 ft 451 kts 185°
2026-05-05 09:58 46.19439 -3.77980 36960 ft 450 kts 185°
2026-05-05 09:59 46.13187 -3.78707 36961 ft 451 kts 185°
2026-05-05 09:59 46.06950 -3.79423 36961 ft 449 kts 184°
2026-05-05 10:00 46.00725 -3.80124 36967 ft 444 kts 185°
2026-05-05 10:00 45.97700 -3.80466 36967 ft 429 kts 185°
2026-05-05 10:00 45.94764 -3.80805 36969 ft 420 kts 185°
2026-05-05 10:01 45.88874 -3.81487 36970 ft 435 kts 185°
2026-05-05 10:01 45.82755 -3.82186 36970 ft 446 kts 185°
2026-05-05 10:02 45.76532 -3.82884 36973 ft 449 kts 185°
2026-05-05 10:02 45.70296 -3.83581 36971 ft 450 kts 185°
2026-05-05 10:03 45.64095 -3.84283 36975 ft 449 kts 185°
2026-05-05 10:03 45.57857 -3.84993 36975 ft 450 kts 185°
2026-05-05 10:04 45.51616 -3.85707 36975 ft 450 kts 185°
2026-05-05 10:04 45.45361 -3.86406 36975 ft 452 kts 185°
2026-05-05 10:05 45.39139 -3.87094 36975 ft 452 kts 185°
2026-05-05 10:05 45.32869 -3.87796 36982 ft 453 kts 185°
2026-05-05 10:06 45.26570 -3.88498 36984 ft 455 kts 185°
2026-05-05 10:06 45.20250 -3.89195 36984 ft 455 kts 185°
2026-05-05 10:07 45.13933 -3.89891 36982 ft 455 kts 185°
2026-05-05 10:07 45.07618 -3.90603 36983 ft 455 kts 186°
2026-05-05 10:08 45.01345 -3.91302 36986 ft 455 kts 185°
2026-05-05 10:08 44.95035 -3.91989 36986 ft 455 kts 185°
2026-05-05 10:09 44.88721 -3.92668 36986 ft 455 kts 186°
2026-05-05 10:09 44.82417 -3.93352 36985 ft 454 kts 186°
2026-05-05 10:10 44.76158 -3.94050 36986 ft 454 kts 186°
2026-05-05 10:10 44.69859 -3.94751 36985 ft 454 kts 186°
2026-05-05 10:11 44.63552 -3.95439 36984 ft 454 kts 186°
2026-05-05 10:11 44.57249 -3.96128 36989 ft 454 kts 186°
2026-05-05 10:12 44.50947 -3.96813 36988 ft 454 kts 186°
2026-05-05 10:12 44.44693 -3.97484 36987 ft 454 kts 186°
2026-05-05 10:13 44.38392 -3.98158 36987 ft 454 kts 186°
2026-05-05 10:13 44.32085 -3.98665 36990 ft 455 kts 179°
2026-05-05 10:14 44.25766 -3.98066 36998 ft 456 kts 178°
2026-05-05 10:14 44.19442 -3.97433 36994 ft 456 kts 178°
2026-05-05 10:15 44.13162 -3.96812 36996 ft 455 kts 179°
2026-05-05 10:15 44.06851 -3.96204 37001 ft 455 kts 178°
2026-05-05 10:16 44.00536 -3.95591 37001 ft 455 kts 179°
2026-05-05 10:16 43.94226 -3.94976 36996 ft 455 kts 179°
2026-05-05 10:17 43.87910 -3.94371 37007 ft 455 kts 179°
2026-05-05 10:17 43.81634 -3.93777 37007 ft 455 kts 179°
2026-05-05 10:18 43.75316 -3.93167 37003 ft 455 kts 178°
2026-05-05 10:18 43.68996 -3.92549 37010 ft 455 kts 178°
2026-05-05 10:19 43.62679 -3.91938 37013 ft 455 kts 179°
2026-05-05 10:19 43.56361 -3.91333 37012 ft 455 kts 179°
2026-05-05 10:20 43.50041 -3.90738 37030 ft 455 kts 179°
2026-05-05 10:20 43.43779 -3.90428 37030 ft 451 kts 188°
2026-05-05 10:21 43.37546 -3.91346 37029 ft 451 kts 189°
2026-05-05 10:21 43.31312 -3.92283 37028 ft 451 kts 189°
2026-05-05 10:22 43.25077 -3.93202 37023 ft 450 kts 189°
2026-05-05 10:22 43.18843 -3.94109 37016 ft 450 kts 189°
2026-05-05 10:23 43.12658 -3.95020 37006 ft 450 kts 189°
2026-05-05 10:23 43.06443 -3.95943 37008 ft 449 kts 189°
2026-05-05 10:24 43.00221 -3.96863 37004 ft 449 kts 189°
2026-05-05 10:24 42.94009 -3.97766 36989 ft 449 kts 189°
2026-05-05 10:25 42.87884 -3.98654 36999 ft 436 kts 189°
2026-05-05 10:25 42.84903 -3.99083 36997 ft 425 kts 189°
2026-05-05 10:25 42.81968 -3.99509 37003 ft 428 kts 189°
2026-05-05 10:26 42.75948 -4.00404 36993 ft 442 kts 189°
2026-05-05 10:26 42.69790 -4.01310 37000 ft 447 kts 189°
2026-05-05 10:27 42.63592 -4.02196 36998 ft 448 kts 189°
2026-05-05 10:27 42.57353 -4.03093 36999 ft 448 kts 189°
2026-05-05 10:28 42.51074 -4.04003 37004 ft 447 kts 189°
2026-05-05 10:28 42.44891 -4.04897 36904 ft 446 kts 189°
2026-05-05 10:29 42.41848 -4.05332 36280 ft 445 kts 190°
2026-05-05 10:29 42.38771 -4.05769 35623 ft 445 kts 190°
2026-05-05 10:29 42.36693 -4.06063 35345 ft 443 kts 190°
2026-05-05 10:29 42.32635 -4.06641 35032 ft 443 kts 190°
2026-05-05 10:30 42.30564 -4.06941 34873 ft 443 kts 190°
2026-05-05 10:30 42.27500 -4.07384 34645 ft 443 kts 190°
2026-05-05 10:30 42.24437 -4.07824 34416 ft 442 kts 190°
2026-05-05 10:30 42.21380 -4.08265 34189 ft 442 kts 190°
2026-05-05 10:31 42.18320 -4.08706 33960 ft 442 kts 190°
2026-05-05 10:31 42.15257 -4.09142 33683 ft 442 kts 190°
2026-05-05 10:31 42.12200 -4.09575 33401 ft 442 kts 191°
2026-05-05 10:31 42.09136 -4.10009 33128 ft 443 kts 191°
2026-05-05 10:32 42.06075 -4.10442 32870 ft 443 kts 191°
2026-05-05 10:32 42.03009 -4.10880 32611 ft 443 kts 191°
2026-05-05 10:32 41.99937 -4.11294 32353 ft 444 kts 190°
2026-05-05 10:32 41.96852 -4.11666 32099 ft 445 kts 189°
2026-05-05 10:33 41.93761 -4.12010 31852 ft 446 kts 189°
2026-05-05 10:33 41.90667 -4.12341 31580 ft 446 kts 189°
2026-05-05 10:33 41.87574 -4.12671 31332 ft 446 kts 189°
2026-05-05 10:33 41.84444 -4.13009 31083 ft 444 kts 189°
2026-05-05 10:34 41.81372 -4.13345 30840 ft 443 kts 189°
2026-05-05 10:34 41.78307 -4.13686 30599 ft 441 kts 189°
2026-05-05 10:34 41.75260 -4.14033 30360 ft 439 kts 189°
2026-05-05 10:34 41.72222 -4.14384 30113 ft 437 kts 189°
2026-05-05 10:35 41.69196 -4.14733 29813 ft 435 kts 190°
2026-05-05 10:35 41.66190 -4.15075 29525 ft 431 kts 190°
2026-05-05 10:35 41.63212 -4.15412 29240 ft 429 kts 190°
2026-05-05 10:35 41.60250 -4.15747 28958 ft 427 kts 190°
2026-05-05 10:36 41.57297 -4.16083 28675 ft 425 kts 190°
2026-05-05 10:36 41.54359 -4.16419 28400 ft 423 kts 190°
2026-05-05 10:36 41.51471 -4.16744 28129 ft 422 kts 189°
2026-05-05 10:36 41.48549 -4.17048 27830 ft 420 kts 190°
2026-05-05 10:37 41.45654 -4.17359 27575 ft 415 kts 190°
2026-05-05 10:37 41.42783 -4.17686 27466 ft 413 kts 191°
2026-05-05 10:37 41.39923 -4.18022 27257 ft 411 kts 191°
2026-05-05 10:37 41.37082 -4.18355 25921 ft 411 kts 190°
2026-05-05 10:38 41.34215 -4.18686 24470 ft 415 kts 189°
2026-05-05 10:38 41.31347 -4.19011 23624 ft 412 kts 189°
2026-05-05 10:38 41.28523 -4.19324 23129 ft 403 kts 189°
2026-05-05 10:38 41.25749 -4.19623 22594 ft 396 kts 188°
2026-05-05 10:39 41.23021 -4.19849 22097 ft 390 kts 187°
2026-05-05 10:39 41.20328 -4.20010 21607 ft 385 kts 187°
2026-05-05 10:39 41.17669 -4.20141 21140 ft 379 kts 186°
2026-05-05 10:39 41.15088 -4.20263 20673 ft 374 kts 186°
2026-05-05 10:40 41.12496 -4.20394 20190 ft 370 kts 187°
2026-05-05 10:40 41.09936 -4.20536 19705 ft 367 kts 187°
2026-05-05 10:40 41.07395 -4.20687 19221 ft 364 kts 187°
2026-05-05 10:40 41.04870 -4.20840 18703 ft 362 kts 187°
2026-05-05 10:41 41.02360 -4.20996 18215 ft 361 kts 187°
2026-05-05 10:41 40.99859 -4.21156 17671 ft 359 kts 187°
2026-05-05 10:41 40.97369 -4.21316 17174 ft 357 kts 187°
2026-05-05 10:41 40.94867 -4.21472 16659 ft 355 kts 186°
2026-05-05 10:42 40.89962 -4.21768 15653 ft 351 kts 186°
2026-05-05 10:42 40.87555 -4.21912 15179 ft 350 kts 186°
2026-05-05 10:42 40.85115 -4.22060 15005 ft 352 kts 186°
2026-05-05 10:43 40.82665 -4.22208 15006 ft 354 kts 186°
2026-05-05 10:43 40.80198 -4.22358 14945 ft 356 kts 186°
2026-05-05 10:43 40.77690 -4.22510 14844 ft 356 kts 186°
2026-05-05 10:43 40.75220 -4.22658 14760 ft 355 kts 186°
2026-05-05 10:44 40.72750 -4.22804 14686 ft 355 kts 186°
2026-05-05 10:44 40.70281 -4.22951 14604 ft 355 kts 186°
2026-05-05 10:44 40.67784 -4.23098 14536 ft 355 kts 186°
2026-05-05 10:44 40.65348 -4.23242 14343 ft 354 kts 186°
2026-05-05 10:45 40.62893 -4.23388 14110 ft 353 kts 186°
2026-05-05 10:45 40.60441 -4.23536 13870 ft 352 kts 186°
2026-05-05 10:45 40.57998 -4.23687 13606 ft 351 kts 186°
2026-05-05 10:45 40.55527 -4.23838 13326 ft 350 kts 186°
2026-05-05 10:46 40.53125 -4.23775 13059 ft 352 kts 176°
2026-05-05 10:46 40.50731 -4.23080 12792 ft 354 kts 164°
2026-05-05 10:46 40.48435 -4.21917 12525 ft 353 kts 161°
2026-05-05 10:46 40.46154 -4.20736 12266 ft 352 kts 161°
2026-05-05 10:47 40.43877 -4.19567 12008 ft 350 kts 161°
2026-05-05 10:47 40.41612 -4.18407 11747 ft 348 kts 161°
2026-05-05 10:47 40.39360 -4.17256 11482 ft 346 kts 161°
2026-05-05 10:47 40.37210 -4.15848 11232 ft 347 kts 149°
2026-05-05 10:48 40.35341 -4.13853 11035 ft 347 kts 136°
2026-05-05 10:48 40.33866 -4.11406 11000 ft 348 kts 123°
2026-05-05 10:48 40.32789 -4.08555 11006 ft 350 kts 110°
2026-05-05 10:48 40.32019 -4.05525 11009 ft 351 kts 109°
2026-05-05 10:49 40.31261 -4.02494 11004 ft 351 kts 109°
2026-05-05 10:49 40.30500 -3.99459 11007 ft 351 kts 109°
2026-05-05 10:49 40.29736 -3.96418 10873 ft 351 kts 109°
2026-05-05 10:49 40.28974 -3.93395 10624 ft 349 kts 109°
2026-05-05 10:50 40.28221 -3.90406 10389 ft 340 kts 109°
2026-05-05 10:50 40.27496 -3.87521 10264 ft 327 kts 109°
2026-05-05 10:50 40.26798 -3.84745 10141 ft 315 kts 109°
2026-05-05 10:50 40.26131 -3.82097 9996 ft 306 kts 109°
2026-05-05 10:51 40.25467 -3.79481 9855 ft 302 kts 109°
2026-05-05 10:51 40.24802 -3.76875 9526 ft 301 kts 109°
2026-05-05 10:51 40.24141 -3.74289 9212 ft 298 kts 109°
2026-05-05 10:51 40.23488 -3.71723 8864 ft 297 kts 109°
2026-05-05 10:52 40.22840 -3.69165 8522 ft 296 kts 109°
2026-05-05 10:52 40.22192 -3.66610 8183 ft 294 kts 109°
2026-05-05 10:52 40.21547 -3.64081 7840 ft 293 kts 109°
2026-05-05 10:52 40.20912 -3.61600 7500 ft 290 kts 109°
2026-05-05 10:53 40.20273 -3.59100 7166 ft 290 kts 109°
2026-05-05 10:53 40.19636 -3.56608 6816 ft 289 kts 110°
2026-05-05 10:53 40.19000 -3.54125 6492 ft 286 kts 110°
2026-05-05 10:53 40.18371 -3.51675 6233 ft 278 kts 109°
2026-05-05 10:54 40.17813 -3.49361 6056 ft 257 kts 102°
2026-05-05 10:54 40.17768 -3.47071 5968 ft 250 kts 79°
2026-05-05 10:54 40.18323 -3.44900 5903 ft 254 kts 59°
2026-05-05 10:54 40.19387 -3.43172 5744 ft 234 kts 40°
2026-05-05 10:55 40.20587 -3.41788 5638 ft 225 kts 37°
2026-05-05 10:55 40.21819 -3.40725 5468 ft 207 kts 25°
2026-05-05 10:55 40.23058 -3.39826 5086 ft 201 kts 26°
2026-05-05 10:55 40.24305 -3.39005 4747 ft 198 kts 17°
2026-05-05 10:56 40.25624 -3.38562 4421 ft 195 kts
2026-05-05 10:56 40.26961 -3.38529 4140 ft 190 kts 351°
2026-05-05 10:56 40.28269 -3.38769 4017 ft 191 kts 349°
2026-05-05 10:56 40.29586 -3.39023 4004 ft 190 kts 342°
2026-05-05 10:57 40.30749 -3.39664 4002 ft 183 kts 324°
2026-05-05 10:57 40.31785 -3.40700 4008 ft 183 kts 319°
2026-05-05 10:57 40.32784 -3.41706 4017 ft 175 kts 319°
2026-05-05 10:57 40.33727 -3.42655 4003 ft 168 kts 318°
2026-05-05 10:58 40.34633 -3.43570 4019 ft 166 kts 320°
2026-05-05 10:58 40.35543 -3.44490 4011 ft 163 kts 319°
2026-05-05 10:58 40.36443 -3.45400 4010 ft 163 kts 319°
2026-05-05 10:58 40.37347 -3.46314 4005 ft 162 kts 320°
2026-05-05 10:59 40.38190 -3.47164 3915 ft 146 kts 318°
2026-05-05 10:59 40.38970 -3.47953 3769 ft 139 kts 320°
2026-05-05 10:59 40.39726 -3.48718 3602 ft 135 kts 319°
2026-05-05 10:59 40.40465 -3.49466 3445 ft 133 kts 317°
2026-05-05 11:00 40.41190 -3.50201 3282 ft 132 kts 317°
2026-05-05 11:00 40.41920 -3.50941 3088 ft 132 kts 317°
2026-05-05 11:00 40.42696 -3.51726 2876 ft 137 kts 321°
2026-05-05 11:00 40.43414 -3.52453 2700 ft 137 kts 321°
2026-05-05 11:01 40.44162 -3.53212 2527 ft 138 kts 320°
2026-05-05 11:01 40.44914 -3.53981 2325 ft 137 kts 319°
2026-05-05 11:01 40.45683 -3.54732 2139 ft 137 kts 317°
2026-05-05 11:01 40.46448 -3.55474 2001 ft 136 kts 312°
2026-05-05 11:02 40.47188 -3.56234 1984 ft 134 kts 308°
2026-05-05 11:02 40.47721 -3.56902 1996 ft 55 kts 322°
2026-05-05 11:02 40.47798 -3.57078 1999 ft 8 kts 258°
2026-05-05 11:02 40.47757 -3.57114 1999 ft 9 kts 172°
2026-05-05 11:03 40.47693 -3.57064 1998 ft 15 kts 148°
2026-05-05 11:03 40.47647 -3.57067 1997 ft 9 kts 220°
2026-05-05 11:03 40.47714 -3.57193 1999 ft 23 kts 322°
2026-05-05 11:03 40.47834 -3.57325 2003 ft 22 kts 322°
2026-05-05 11:04 40.47956 -3.57455 2003 ft 24 kts 319°
2026-05-05 11:04 40.48093 -3.57595 1999 ft 26 kts 321°
2026-05-05 11:04 40.48244 -3.57741 1995 ft 28 kts 323°
2026-05-05 11:04 40.48387 -3.57874 1992 ft 24 kts 325°
2026-05-05 11:05 40.48521 -3.57991 2000 ft 21 kts 328°
2026-05-05 11:05 40.48653 -3.58049 2003 ft 17 kts 355°
2026-05-05 11:05 40.48735 -3.58043 2003 ft 11 kts 18°
2026-05-05 11:05 40.48765 -3.57955 2000 ft 12 kts 85°
2026-05-05 11:06 40.48766 -3.57836 1995 ft 14 kts 90°
2026-05-05 11:06 40.48767 -3.57698 1992 ft 15 kts 89°
2026-05-05 11:06 40.48765 -3.57558 1989 ft 15 kts 94°
2026-05-05 11:06 40.48762 -3.57422 1988 ft 15 kts 90°
2026-05-05 11:07 40.48764 -3.57283 1985 ft 15 kts 82°
2026-05-05 11:07 40.48846 -3.57226 1983 ft 14 kts
2026-05-05 11:07 40.48940 -3.57226 1984 ft 13 kts 360°
2026-05-05 11:07 40.49024 -3.57225 1985 ft 12 kts
2026-05-05 11:08 40.49101 -3.57227 1983 ft 11 kts 358°
2026-05-05 11:08 40.49179 -3.57230 1983 ft 14 kts 360°
2026-05-05 11:08 40.49271 -3.57215 1980 ft 13 kts 38°
2026-05-05 11:08 40.49288 -3.57097 1979 ft 11 kts 88°
2026-05-05 11:09 40.49289 -3.57050 1978 ft 1 kts 86°
2026-05-05 11:09 40.49290 -3.57034 1978 ft 3 kts 81°
2026-05-05 11:09 40.49318 -3.57006 1977 ft 8 kts 17°
2026-05-05 11:09 40.49391 -3.57003 1975 ft 12 kts 360°
2026-05-05 11:10 40.49408 -3.56954 1974 ft 2 kts 94°
2026-05-05 11:10 40.49407 -3.56941 1974 ft 2 kts 92°
2026-05-05 11:10 40.49407 -3.56906 1973 ft 5 kts 89°
2026-05-05 11:10 40.49408 -3.56883 1974 ft 2 kts 88°
2026-05-05 11:11 40.49408 -3.56869 1974 ft 1 kts 89°
2026-05-05 11:11 40.49408 -3.56867 1974 ft 0 kts 89°